#timestamp,LO_Frequency,Hit,StdDev 
1568858415.1,286046999.8,N
1568858416.0,286046999.8,N
1568858435.8,286047002.3,N
1568858455.7,286047002.0,N
1568858475.5,286047002.4,N
1568858495.3,286047002.6,N
1568858515.2,286047004.0,N
1568858535.0,286047004.0,N
1568858535.9,286047004.0,N
1568858555.8,286047004.2,N
1568858575.6,286047003.9,N
1568858595.4,286047003.2,N
1568858615.3,286047003.5,N
1568858635.1,286047003.5,N
1568858655.8,286047004.2,N
1568858675.7,286047002.9,N
1568858695.5,286047003.4,N
1568858715.4,286047006.0,Y
1568858735.2,286046999.7,P
1568858755.0,286047002.6,N
1568858755.9,286047002.6,N
1568858775.8,286047001.8,N
1568858795.6,286047003.1,N
1568858815.5,286047003.5,Y
1568858835.3,286046999.8,P
1568858855.1,286047002.7,N
1568858875.9,286047002.1,N
1568858895.7,286047000.0,N
1568858915.5,286047002.6,N
1568858935.4,286047001.1,N
1568858955.2,286046999.9,N
1568858975.1,286047002.2,N
1568858976.0,286047002.2,N
1568858995.8,286047002.7,N
1568859015.6,286047001.7,N
1568859035.5,286046999.8,N
1568859055.3,286046998.5,N
1568859075.1,286046998.5,N
1568859095.9,286046998.5,N
1568859115.7,286047000.9,N
1568859135.6,286047001.9,N
1568859155.4,286047001.8,N
1568859175.2,286047001.0,N
1568859195.1,286047003.2,N
1568859196.0,286047003.2,N
1568859215.8,286047004.0,N
1568859235.6,286047002.5,N
1568859255.5,286047001.6,N
1568859275.3,286046999.9,N
1568859295.2,286047001.7,N
1568859315.9,286047004.4,N
1568859335.7,286047000.1,N
1568859355.6,286047000.9,N
1568859375.4,286046998.7,N
1568859395.2,286046997.2,N
1568859415.1,286046996.5,N
1568859416.0,286046996.5,N
1568859435.8,286046999.6,N
1568859455.7,286047000.5,N
1568859475.5,286047003.9,N
1568859495.3,286047001.5,N
1568859515.2,286047002.8,N
1568859535.0,286047002.3,N
1568859535.9,286047002.3,N
1568859555.8,286047002.0,N
1568859575.6,286047003.0,N
1568859595.4,286047004.4,N
1568859615.3,286046998.5,N
1568859635.1,286046999.5,N
1568859655.8,286046998.9,N
1568859675.7,286046996.7,N
1568859695.5,286047001.2,N
1568859715.4,286046996.6,N
1568859735.2,286046999.1,N
1568859755.0,286047000.6,N
1568859755.9,286047000.6,N
1568859775.8,286046996.5,N
1568859795.6,286046997.6,N
1568859815.4,286046998.0,N
1568859835.3,286046999.5,N
1568859855.1,286047001.1,N
1568859875.9,286046998.2,N
1568859895.7,286046999.0,N
1568859915.5,286047000.8,N
1568859935.4,286046996.7,N
1568859955.2,286046997.3,N
1568859975.0,286046997.7,N
1568859975.9,286046997.7,N
1568859995.8,286046997.2,N
1568860015.6,286046995.7,N
1568860035.5,286046995.3,N
1568860055.3,286046995.2,N
1568860075.1,286046995.5,N
1568860095.9,286046995.9,N
1568860115.7,286046993.3,N
1568860135.5,286046997.5,N
1568860155.4,286047000.8,N
1568860175.2,286046997.0,N
1568860195.0,286046998.5,N
1568860195.9,286046998.5,N
1568860215.8,286046998.1,N
1568860235.6,286046996.7,N
1568860255.5,286046998.7,N
1568860275.3,286046999.5,N
1568860295.1,286046995.4,N
1568860315.9,286046998.9,N
1568860335.7,286046998.3,N
1568860355.5,286046999.2,N
1568860375.4,286046999.0,N
1568860395.2,286047000.7,N
1568860415.1,286046998.8,N
1568860416.0,286046998.8,N
1568860435.8,286046996.9,N
1568860455.6,286046998.9,N
1568860475.5,286046998.7,N
1568860495.3,286046996.7,N
1568860515.1,286046998.7,N
1568860535.9,286046999.4,N
1568860555.7,286047000.6,N
1568860575.6,286046998.9,N
1568860595.4,286047001.2,N
1568860615.2,286046999.9,N
1568860635.1,286047001.2,N
1568860636.0,286047001.2,N
1568860655.8,286046996.5,N
1568860675.6,286046998.8,N
1568860695.5,286046997.6,N
1568860715.3,286046996.3,N
1568860735.2,286046993.3,Y
1568860755.9,286046999.3,P
1568860805.8,286046998.3,E
1568860815.7,286046999.8,N
1568860835.5,286046999.7,P
1568860855.4,286047000.2,P
1568860875.2,286047000.2,N
1568860895.0,286047004.4,Y
1568860895.9,286047004.4,P
1568860915.8,286047002.0,N
1568860935.6,286047003.8,N
1568860955.5,286047001.5,N
1568860975.3,286047002.0,N
1568860995.1,286047001.3,N
1568861015.9,286047005.8,Y
1568861035.7,286047001.9,P
1568861055.5,286047004.1,P
1568861075.4,286047003.5,P
1568861095.2,286047002.2,N
1568861115.1,286047002.2,N
1568861116.0,286047002.2,N
1568861135.8,286046998.2,N
1568861155.6,286047000.2,N
1568861175.5,286047000.1,N
1568861195.3,286047003.8,N
1568861215.2,286047002.0,N
1568861235.9,286047000.2,N
1568861255.7,286047001.1,N
1568861275.6,286046999.8,N
1568861295.4,286046999.7,N
1568861315.2,286047004.4,N
1568861335.1,286047001.7,N
1568861336.0,286047001.7,N
1568861355.8,286047003.5,N
1568861375.7,286047005.8,Y
1568861395.5,286047003.6,P
1568861415.3,286047001.5,N
1568861435.2,286047001.3,N
1568861455.0,286047005.9,Y
1568861455.9,286047005.9,P
1568861475.8,286047004.2,N
1568861495.6,286047005.3,P
1568861515.4,286047005.7,Y
1568861535.3,286046999.7,P
1568861555.1,286047002.3,N
1568861575.9,286047000.9,N
1568861595.7,286046999.1,N
1568861615.5,286046997.0,N
1568861635.4,286046998.6,N
1568861655.2,286047000.0,N
1568861675.0,286047000.5,N
1568861675.9,286047000.5,N
1568861695.8,286046999.8,N
1568861715.6,286046998.1,N
1568861735.5,286047000.4,N
1568861755.3,286047000.4,N
1568861775.1,286046998.6,N
1568861795.9,286046998.6,N
1568861815.7,286047000.2,N
1568861835.5,286046999.7,N
1568861855.4,286047001.3,N
1568861875.2,286047002.3,N
1568861895.1,286047000.9,N
1568861896.0,286047000.9,N
1568861915.8,286047002.3,N
1568861935.6,286046999.8,N
1568861955.5,286047000.6,N
1568861975.3,286046998.4,N
1568861995.1,286046996.9,N
